Regional Weather Roundup
Issued by NWS

Home | Current Version | Previous Version | Text Only | Print | Product List | Glossary Off
Versions: 1 2 3 4 5 6 7 8 9 10 11 12 13 14 15 16 17 18 19 20 21 22 23 24 25 26 27 28 29 30 31 32 33 34 35 36 37 38 39 40 41 42 43 44 45 46 47 48 49 50

000
ASUS43 KLOT 290310
RWRIL

ILLINOIS REGIONAL WEATHER ROUNDUP
NATIONAL WEATHER SERVICE CHICAGO/ROMEOVILLE IL
1000 PM CDT MON JUL 28 2014

NOTE: "FAIR" INDICATES FEW OR NO CLOUDS BELOW 12,000 FEET WITH NO
SIGNIFICANT WEATHER AND/OR OBSTRUCTIONS TO VISIBILITY.

* THESE STATIONS ARE NOT UNDER NWS QUALITY CONTROL. THEY ALSO MAY NOT
  REPORT WEATHER SUCH AS PRECIPITATION OR FOG.

ILZ001-002-007-009-015-016-024-290400-
NORTHWEST ILLINOIS

CITY           SKY/WX    TMP DP  RH WIND       PRES   REMARKS
MOLINE         CLEAR     59  53  80 CALM      30.12R
STERLING*      CLEAR     61  52  72 NW3       30.11R
SAVANNA*       CLEAR     61  55  82 CALM      30.11S
$$

ILZ003-004-008-010-011-017-018-290400-
NORTH CENTRAL ILLINOIS

CITY           SKY/WX    TMP DP  RH WIND       PRES   REMARKS
ROCKFORD       PTCLDY    62  53  72 W5        30.11R
FREEPORT*      CLEAR     58  53  84 W6        30.13R
ROCHELLE*      CLEAR     59  53  80 W5        30.10S
DE KALB*       CLEAR     60  52  74 W7        30.10R
PERU*          CLEAR     60  53  79 W6        30.10S
$$

ILZ005-006-012>014-019>023-290400-
NORTHEAST ILLINOIS

CITY           SKY/WX    TMP DP  RH WIND       PRES   REMARKS
CHICAGO-OHARE  CLOUDY    62  49  62 SE3       30.07S
CHICAGO-MIDWAY MOCLDY    64  50  60 CALM      30.07S
AURORA         CLEAR     57  52  83 W3        30.09R
LANSING*       CLOUDY    60  51  72 CALM      30.08S
JOLIET*        PTCLDY    65  51  60 W3        30.09S
WAUKEGAN       CLOUDY    59  50  72 S6        30.06S
DUPAGE AIRPORT MOCLDY    63  53  70 W7        30.07S
KANKAKEE*      CLEAR     56  53  92 CALM      30.09S
WHEELING       CLOUDY    62  50  64 S5        30.08S
MORRIS*        CLOUDY    61  55  82 W6        30.09S
ROMEOVILLE*    CLOUDY    63  52  66 CALM      30.08S
NORTHERLY ISL    N/A     62  51  67 SE1         N/A
$$

LMZ740>746-290400-
SOUTHERN LAKE MICHIGAN

STATION/POSITION SKY/WX   TEMP    WIND        PRES    VSBY  WAVE
                          AIR SEA DIR/SP/G                  HT/PER
                          (F)     (DEG/KT/KT) (MB)    (MI)  (FT/S)
SOUTHERN BUOY              59 60  360/  2/  4 1018.0R         3/ 6
WAUKEGAN HARBOR            61     210/  6/  7   N/A
HARRISON CRIB              62     170/  2/  3   N/A
BURNHAM HARBOR             61      CALM  /  3   N/A
CALUMET HARBOR             62     350/  1/  1 1017.3S
MICHIGAN CITY              64     350/ 12/ 14   N/A
MICHIGAN CITY 6N           64 67  360/  8/ 12   N/A           5/ 7
ST. JOSEPH                 62 66   20/  6/  8   N/A           5/ 6
$$

ILZ025>027-034>036-040-047-049-050-058-095>099-290400-
WEST-CENTRAL ILLINOIS

CITY           SKY/WX    TMP DP  RH WIND       PRES   REMARKS
QUINCY         MOCLDY    63  56  78 CALM      30.15R
GALESBURG*     CLEAR     57  55  91 CALM      30.13R
MACOMB*        CLEAR     56  55  95 W3        30.15R
JACKSONVILLE*  CLEAR     58  56  91 CALM      30.14R
PITTSFIELD*    CLEAR     61  55  81 W3        30.15R
$$

ILZ028>032-037-038-041>044-048-051>054-059>061-290400-
CENTRAL ILLINOIS

CITY           SKY/WX    TMP DP  RH WIND       PRES   REMARKS
PONTIAC        CLEAR     57  55  94 CALM      30.10S
DECATUR        CLEAR     60  53  77 N7        30.11R
PEORIA         CLEAR     61  54  77 W3        30.12R
LACON*         CLEAR     57  53  85 CALM      30.10S
LINCOLN*       CLEAR     62  55  75 CALM      30.09S
SPRINGFIELD    CLEAR     59  56  89 CALM      30.12S
TAYLORVILLE    CLEAR     57  54  88 NW5       30.12R
$$

ILZ033-039-045-046-055>057-062-063-290400-
EAST-CENTRAL ILLINOIS

CITY           SKY/WX    TMP DP  RH WIND       PRES   REMARKS
CHAMPAIGN      CLEAR     57  52  83 CALM      30.10S
DANVILLE*      CLEAR     53  51  95 CALM      30.07S
RANTOUL*       CLEAR     60  53  78 NW3       30.11S
MATTOON        CLEAR     57  51  80 CALM      30.09S
PARIS*         CLEAR     56  52  87 CALM      30.10S
$$

ILZ079-100>102-290400-
SOUTHWEST ILLINOIS

CITY           SKY/WX    TMP DP  RH WIND       PRES   REMARKS
BELLEVILLE     CLEAR     63  55  76 NW3       30.11R
CAHOKIA*       CLEAR     64  54  69 NE3       30.12R
SPARTA*        PTCLDY    64  54  68 N3        30.12R
$$

ILZ064>066-069>071-074>076-080>082-084>086-088>090-092>094-290400-
SOUTH-CENTRAL ILLINOIS

CITY           SKY/WX    TMP DP  RH WIND       PRES   REMARKS
CARBONDALE     CLEAR     67  55  65 N6        30.09R
CAIRO*         CLEAR     70  60  71 N6        30.08R
EFFINGHAM*     CLEAR     62  50  64 CALM      30.10S
MARION         PTCLDY    68  55  64 N5        30.10R
MT. VERNON     CLEAR     61  52  72 CALM      30.11R
CENTRALIA*     CLEAR     58  52  78 CALM      30.10S
SALEM*         CLEAR    N/A N/A N/A CALM      30.11R
METROPOLIS*    CLEAR     68  56  64 N3        30.08R
$$

ILZ067-068-072-073-078-083-087-091-290400-
SOUTHEAST ILLINOIS

CITY           SKY/WX    TMP DP  RH WIND       PRES   REMARKS
LAWRENCEVILLE  CLEAR     62  51  67 N8        30.09R
FLORA*         CLEAR     62  53  72 N5        30.10R
FAIRFIELD*     CLEAR     63  57  82 CALM      30.09R
HARRISBURG*    MOCLDY    66  56  68 N5        30.10R
ROBINSON*      CLEAR     60  52  75 N3        30.10S
CARMI*         CLEAR     63  57  82 NW5       30.08R
$$

ABBREVIATIONS USED IN REMARKS
   TC - TEMPERATURE IN CELSIUS
  WCI - WIND CHILL INDEX
   HX - HEAT INDEX
  VSB - VISIBILITY
$$




USA.gov is the U.S. government's official web portal to all federal, state and local government web resources and services.